STARLINK-11514, 62514

Orbit data source: Space-Track

STARLINK-11514, 62514 is a payload satellite owned by SpaceX/Seattle (US) in LEO that was launched on Wed, 08 Jan 2025 UTC via an FALCON 9 launch vehicle from the Air Force Eastern Test Range (AFETR). Payload-class satellites include a variety of spacecraft equipped with specific instruments for various scientific and technological missions. These include communications satellites like Starlink; space stations such as the ISS; scientific satellites like the Hubble; Earth observation satellites from companies like Planet Labs, Umbra, and HawkEye 360; GPS; miniature CubeSats for education and research; and military/defense satellites.

Loading next visibility...
Identifier
62514, 2025-004D
Orbit
LEO
Last TLE update
6 hours ago
Origin
Manufacturer
SpaceX/Seattle
Mission
Operational Commercial Communications
Bus & Motor
STARLINK V2M, Unknown motor
Mass
730 kg wet, ~700 kg dry
Launch date (UTC)
2025-01-08 (6 months ago)
Launch vehicle
FALCON 9
Launch site
Air Force Eastern Test Range (AFETR)
Object type
Payload
Rocket body
Debris
Shape & HBR
Box + 2 Pan, 29 m
Radar Cross Section
36.964 m², Large (>1 m²)

Expand to show TLE details & history

TLE from 6 hours ago
0 STARLINK-11514
1 62514U 25004D   25182.18089124  .00159003  00000-0  12174-2 0  9995
2 62514  43.0025 146.6619 0002384 268.1039  91.9556 15.70871804 27659
Epoch: 2025-07-01T04:20Z
TLE epoch observation values (Epoch: 2025-07-01T04:20:29.003Z)
Latitude
0.00002°
Longitude
162.06104°
Altitude
356.231 km
Speed
7.697 km/s
True Right ascension
09h 46m 38s
True Declination
0° 00' 00"
Sunlit
Object was in daylight at epoch
Visualization orbit readout
Latitude
-24.99202°
Longitude
10.48176°
Altitude
361.334 km
Speed
7.694 km/s
Apparent Right ascension
03h 12m 39s
Apparent Declination
-64° 17' 08"
Sunlit
Object is in full shadow
Visualization observer readout
Local Sidereal Time
21:28:55
Azimuth
148.663° SSE
Elevation
-33.677°
Doppler factor
1
Orbital elements
Apogee altitude
359.991 km
Perigee altitude
356.779 km
Semi-major axis
6,736.522 km
Eccentricity
0.00024
Inclination
43.0025°
RAAN
146.6619°
Arg. of periapsis
268.1039°
True anomaly
Unknown
Mean anomaly
91.9556°
Eccentric anomaly
Unknown
Mean motion
3.92545 °/min
Orbital period
91.71 mins
BSTAR
0.0012174
Loading maneuver chart data...
Loading SW <> Apogee altitude chart data...
Loading historical data...
Loading historical data...
Loading historical data...
Loading historical data...
Loading historical data...
Loading historical data...
Loading historical data...

STARLINK-11514 Visibility forecast

Observer location: undefined°, undefined°

Span
Click to sort rows by Start time (UTC) header in descending order
Start Az.
Max El. time (UTC)
Max El. Az.
Max El.
End time (UTC)
End Az.
4 mins2025-07-02 01:58:34.656Z252.832° W2025-07-02 01:59:34.656Z255.806° W40.708°2025-07-02 02:02:34.656Z71.406° E
4 mins2025-07-02 03:34:34.656Z294.585° NW2025-07-02 03:36:34.656Z17.243° NNE33.534°2025-07-02 03:38:34.656Z69.247° E
|